• Currently

    Reported at Don Muang
    4:30 PM GMT+7 SAT JUN 24 2017
  • 90°F32°C
  • Showers In Vicinity
    Showers In Vicinity
  • Feels Like:100°F38°CDew Point:75°F24°CHumidity:63% Winds:SSW 20 mph G 3132 kph G 50
    Pressure:29.59 in1002 hPaVisibility:5.59 miles9000.00 meters
Time Weather Temp Dew Point
Humidity Winds Visibility Pressure Precipitation
1 hr 24 hr
Saturday, June 24
16:00 16:00 Partly Cloudy With Light Rain Partly Cloudy With Light Rain 82°F28°C 79°F26°C 89% SSW 16 mphSSW 26 kph 3.7 miles6.0 km 29.62 in1003 hPa -- --
15:30 15:30 Partly Cloudy With Thunderstorms Partly Cloudy With Thunderstorms 90°F32°C 75°F24°C 63% W 20 mphW 31 kph 5.6 miles9.0 km 29.59 in1002 hPa -- --
15:00 15:00 Partly Cloudy Partly Cloudy 93°F34°C 75°F24°C 56% WNW 13 mphWNW 20 kph 30.0 miles48.3 km 29.59 in1002 hPa -- --
14:30 14:30 Partly Cloudy Partly Cloudy 93°F34°C 77°F25°C 59% W 7 mphW 11 kph 30.0 miles48.3 km 29.59 in1002 hPa -- --
14:00 14:00 Mostly Sunny Mostly Sunny 93°F34°C 75°F24°C 56% W 12 mphW 19 kph 30.0 miles48.3 km 29.62 in1003 hPa -- --
13:30 13:30 Mostly Sunny Mostly Sunny 93°F34°C 75°F24°C 56% WNW 12 mphWNW 19 kph 30.0 miles48.3 km 29.65 in1004 hPa -- --
13:00 13:00 Partly Cloudy Partly Cloudy 91°F33°C 75°F24°C 59% W 12 mphW 19 kph 30.0 miles48.3 km 29.65 in1004 hPa -- --
12:30 12:30 Mostly Sunny Mostly Sunny 91°F33°C 75°F24°C 59% WNW 13 mphWNW 20 kph 30.0 miles48.3 km 29.68 in1005 hPa -- --
12:00 12:00 Mostly Sunny Mostly Sunny 91°F33°C 75°F24°C 59% WNW 10 mphWNW 17 kph 30.0 miles48.3 km 29.68 in1005 hPa -- --
11:30 11:30 Mostly Sunny Mostly Sunny 91°F33°C 75°F24°C 59% WSW 12 mphWSW 19 kph 30.0 miles48.3 km 29.71 in1006 hPa -- --
11:00 11:00 Mostly Sunny Mostly Sunny 90°F32°C 75°F24°C 63% W 9 mphW 15 kph 30.0 miles48.3 km 29.71 in1006 hPa -- --
10:30 10:30 Mostly Sunny Mostly Sunny 90°F32°C 75°F24°C 63% W 12 mphW 19 kph 30.0 miles48.3 km 29.71 in1006 hPa -- --
10:00 10:00 Mostly Sunny Mostly Sunny 90°F32°C 75°F24°C 63% WSW 12 mphWSW 19 kph 30.0 miles48.3 km 29.71 in1006 hPa -- --
09:30 09:30 Partly Cloudy Partly Cloudy 88°F31°C 77°F25°C 70% SW 7 mphSW 11 kph 30.0 miles48.3 km 29.74 in1007 hPa -- --
09:00 09:00 Partly Cloudy Partly Cloudy 88°F31°C 75°F24°C 66% WSW 9 mphWSW 15 kph 30.0 miles48.3 km 29.74 in1007 hPa -- --
08:30 08:30 Mostly Cloudy Mostly Cloudy 86°F30°C 75°F24°C 70% WSW 12 mphWSW 19 kph 30.0 miles48.3 km 29.74 in1007 hPa -- --
08:00 08:00 Mostly Cloudy Mostly Cloudy 84°F29°C 75°F24°C 74% WSW 8 mphWSW 13 kph 30.0 miles48.3 km 29.74 in1007 hPa -- --
07:30 07:30 Mostly Cloudy Mostly Cloudy 84°F29°C 73°F23°C 70% W 7 mphW 11 kph 30.0 miles48.3 km 29.74 in1007 hPa -- --
07:00 07:00 Mostly Sunny Mostly Sunny 82°F28°C 73°F23°C 74% W 7 mphW 11 kph 30.0 miles48.3 km 29.74 in1007 hPa -- --
06:30 06:30 Mostly Sunny Mostly Sunny 82°F28°C 73°F23°C 74% WSW 7 mphWSW 11 kph 30.0 miles48.3 km 29.74 in1007 hPa -- --
06:00 06:00 Mostly Sunny Mostly Sunny 81°F27°C 73°F23°C 79% WSW 6 mphWSW 9 kph 30.0 miles48.3 km 29.71 in1006 hPa -- --
05:30 05:30 Mostly Sunny Mostly Sunny 81°F27°C 73°F23°C 79% WSW 8 mphWSW 13 kph 30.0 miles48.3 km 29.71 in1006 hPa -- --
05:00 05:00 Mostly Sunny Mostly Sunny 81°F27°C 73°F23°C 79% WSW 7 mphWSW 11 kph 30.0 miles48.3 km 29.71 in1006 hPa -- --
04:30 04:30 Mostly Clear Mostly Clear 81°F27°C 73°F23°C 79% WSW 7 mphWSW 11 kph 30.0 miles48.3 km 29.71 in1006 hPa -- --
04:00 04:00 Mostly Clear Mostly Clear 81°F27°C 73°F23°C 79% WSW 7 mphWSW 11 kph 30.0 miles48.3 km 29.71 in1006 hPa -- --
03:30 03:30 Mostly Clear Mostly Clear 81°F27°C 73°F23°C 79% WSW 8 mphWSW 13 kph 7.0 miles11.3 km 29.71 in1006 hPa -- --
03:00 03:00 Mostly Clear Mostly Clear 82°F28°C 73°F23°C 74% W 10 mphW 17 kph 7.0 miles11.3 km 29.68 in1005 hPa -- --
02:30 02:30 Mostly Clear Mostly Clear 82°F28°C 73°F23°C 74% W 10 mphW 17 kph 7.0 miles11.3 km 29.68 in1005 hPa -- --
02:00 02:00 Mostly Clear Mostly Clear 82°F28°C 73°F23°C 74% W 10 mphW 17 kph 7.0 miles11.3 km 29.71 in1006 hPa -- --
01:30 01:30 Mostly Clear Mostly Clear 82°F28°C 73°F23°C 74% W 13 mphW 20 kph 7.0 miles11.3 km 29.71 in1006 hPa -- --
01:00 01:00 Mostly Clear Mostly Clear 82°F28°C 73°F23°C 74% W 13 mphW 20 kph 7.0 miles11.3 km 29.71 in1006 hPa -- --
00:30 00:30 Mostly Clear Mostly Clear 82°F28°C 73°F23°C 74% W 12 mphW 19 kph 7.0 miles11.3 km 29.71 in1006 hPa -- --
00:00 00:00 Mostly Clear Mostly Clear 82°F28°C 73°F23°C 74% WSW 10 mphWSW 17 kph 7.0 miles11.3 km 29.71 in1006 hPa -- --
23:30 23:30 Mostly Clear Mostly Clear 82°F28°C 73°F23°C 74% W 12 mphW 19 kph 7.0 miles11.3 km 29.71 in1006 hPa -- --
23:00 23:00 Mostly Clear Mostly Clear 82°F28°C 73°F23°C 74% W 10 mphW 17 kph 7.0 miles11.3 km 29.74 in1007 hPa -- --